When you browse on this site, cookies collect data to enhance your experience and personalize the content and advertising you see.
Visit our Privacy Policy to learn more. By continuing to use the site, you agree to this use of cookies and data.
  • En España
  • Lista de países
  • Para 7 días
  • Temperatura del agua
  • Mapa Satelital
  • El tiempo en el mapa
  • Informadores
  • user-avatar
    Iniciar sesión

    Tiempo cada hora Tibissa

    Hoy, 20 Enero, Domingo

    Tiempo Temperatura Precipitaciones Viento Presión Humedad
    00:00 +6°C° 0 mm 1 mps 682 mmHg 85%
    01:00 +4°C° 0 mm 0 mps 681 mmHg 88%
    02:00 +4°C° 0 mm 0 mps 681 mmHg 88%
    03:00 +3°C° 0 mm 0 mps 681 mmHg 89%
    04:00 +3°C° 0 mm 0 mps 681 mmHg 90%
    05:00 +4°C° 0 mm 1 mps 681 mmHg 89%
    06:00 +4°C° 0 mm 1 mps 681 mmHg 88%
    07:00 +4°C° 0 mm 1 mps 681 mmHg 88%
    08:00 +4°C° 0 mm 2 mps 681 mmHg 81%
    09:00 +5°C° 0 mm 2 mps 681 mmHg 74%
    10:00 +7°C° 0 mm 3 mps 682 mmHg 67%
    11:00 +7°C° 0 mm 4 mps 682 mmHg 58%
    12:00 +8°C° 0 mm 5 mps 681 mmHg 50%
    13:00 +9°C° 0 mm 6 mps 681 mmHg 41%
    14:00 +9°C° 0 mm 6 mps 681 mmHg 44%
    15:00 +9°C° 0 mm 7 mps 680 mmHg 46%
    16:00 +7°C° 0 mm 8 mps 680 mmHg 49%
    17:00 +6°C° 0 mm 8 mps 679 mmHg 56%
    18:00 +6°C° 0 mm 8 mps 679 mmHg 63%
    19:00 +5°C° 0 mm 7 mps 679 mmHg 70%
    20:00 +5°C° 0.1 mm 7 mps 679 mmHg 73%
    21:00 +4°C° 0.1 mm 7 mps 679 mmHg 76%
    22:00 +4°C° 0.1 mm 6 mps 679 mmHg 79%
    23:00 +4°C° 0 mm 6 mps 679 mmHg 81%

    Mañana, 21 Enero, Lunes

    Tiempo Temperatura Precipitaciones Viento Presión Humedad
    00:00 +5°C° 0 mm 5 mps 678 mmHg 83%
    01:00 +3°C° 0 mm 5 mps 678 mmHg 86%
    02:00 +4°C° 0 mm 4 mps 678 mmHg 86%
    03:00 +4°C° 0 mm 4 mps 678 mmHg 87%
    04:00 +4°C° 0 mm 3 mps 678 mmHg 87%
    05:00 +4°C° 0 mm 3 mps 678 mmHg 88%
    06:00 +4°C° 0 mm 3 mps 678 mmHg 89%
    07:00 +4°C° 0 mm 2 mps 678 mmHg 90%
    08:00 +6°C° 0 mm 2 mps 678 mmHg 83%
    09:00 +7°C° 0 mm 3 mps 679 mmHg 76%
    10:00 +8°C° 0 mm 3 mps 679 mmHg 68%
    11:00 +8°C° 0 mm 4 mps 679 mmHg 62%
    12:00 +9°C° 0 mm 5 mps 679 mmHg 56%
    13:00 +10°C° 0 mm 6 mps 679 mmHg 51%
    14:00 +10°C° 0 mm 7 mps 679 mmHg 49%
    15:00 +10°C° 0 mm 7 mps 679 mmHg 47%
    16:00 +10°C° 0 mm 7 mps 678 mmHg 45%
    17:00 +7°C° 0 mm 8 mps 678 mmHg 51%
    18:00 +6°C° 0 mm 8 mps 679 mmHg 57%
    19:00 +5°C° 0 mm 8 mps 679 mmHg 63%
    20:00 +5°C° 0 mm 9 mps 679 mmHg 68%
    21:00 +3°C° 0 mm 9 mps 679 mmHg 73%
    22:00 +2°C° 0 mm 10 mps 679 mmHg 78%
    23:00 +2°C° 0.1 mm 10 mps 680 mmHg 78%

    Pasado mañana, 22 Enero, Martes

    Tiempo Temperatura Precipitaciones Viento Presión Humedad
    00:00 +2°C° 0.1 mm 10 mps 680 mmHg 78%
    01:00 +2°C° 0.1 mm 10 mps 680 mmHg 79%
    02:00 +2°C° 0 mm 10 mps 680 mmHg 80%
    03:00 +1°C° 0 mm 10 mps 680 mmHg 80%
    04:00 +1°C° 0 mm 9 mps 680 mmHg 81%
    05:00 +1°C° 0 mm 9 mps 680 mmHg 82%
    06:00 0°C° 0 mm 9 mps 680 mmHg 83%
    07:00 0°C° 0 mm 8 mps 680 mmHg 84%
    08:00 0°C° 0 mm 8 mps 681 mmHg 80%
    09:00 +1°C° 0 mm 8 mps 681 mmHg 76%
    10:00 +1°C° 0 mm 9 mps 681 mmHg 72%
    11:00 +2°C° 0 mm 9 mps 681 mmHg 67%
    12:00 +3°C° 0 mm 9 mps 681 mmHg 62%
    13:00 +5°C° 0 mm 9 mps 681 mmHg 56%
    14:00 +5°C° 0 mm 8 mps 681 mmHg 55%
    15:00 +5°C° 0 mm 8 mps 680 mmHg 54%
    16:00 +5°C° 0 mm 7 mps 680 mmHg 52%
    17:00 +5°C° 0 mm 5 mps 679 mmHg 55%
    18:00 +4°C° 0 mm 4 mps 679 mmHg 59%
    19:00 +4°C° 0 mm 2 mps 679 mmHg 62%
    20:00 +4°C° 0 mm 2 mps 679 mmHg 63%
    21:00 +4°C° 0 mm 2 mps 679 mmHg 65%
    22:00 +2°C° 0 mm 3 mps 679 mmHg 66%
    23:00 +2°C° 0 mm 3 mps 678 mmHg 72%

    23 Enero, Miércoles

    Tiempo Temperatura Precipitaciones Viento Presión Humedad
    00:00 +2°C° 0 mm 3 mps 677 mmHg 78%
    01:00 0°C° 0 mm 4 mps 677 mmHg 84%
    02:00 0°C° 0 mm 4 mps 676 mmHg 78%
    03:00 0°C° 0 mm 5 mps 675 mmHg 73%
    04:00 0°C° 0 mm 5 mps 674 mmHg 68%
    05:00 -1°C° 0 mm 6 mps 674 mmHg 67%
    06:00 -1°C° 0 mm 6 mps 673 mmHg 67%
    07:00 -1°C° 0 mm 7 mps 672 mmHg 67%
    08:00 0°C° 0.4 mm 7 mps 672 mmHg 71%
    09:00 0°C° 0.4 mm 8 mps 672 mmHg 76%
    10:00 0°C° 0.4 mm 8 mps 672 mmHg 80%
    11:00 +1°C° 0.5 mm 10 mps 672 mmHg 73%
    12:00 +2°C° 0.5 mm 11 mps 671 mmHg 67%
    13:00 +2°C° 0.5 mm 12 mps 671 mmHg 60%
    14:00 +2°C° 0.2 mm 12 mps 671 mmHg 60%
    15:00 +2°C° 0.2 mm 12 mps 670 mmHg 59%
    16:00 +1°C° 0.2 mm 11 mps 670 mmHg 59%
    17:00 0°C° 0.1 mm 10 mps 670 mmHg 66%
    18:00 -1°C° 0.1 mm 8 mps 670 mmHg 73%
    19:00 -2°C° 0.1 mm 6 mps 670 mmHg 80%
    20:00 -1°C° 0.4 mm 5 mps 670 mmHg 84%
    21:00 -1°C° 0.4 mm 4 mps 670 mmHg 88%
    22:00 -1°C° 0.4 mm 3 mps 669 mmHg 92%
    23:00 -2°C° 0.8 mm 4 mps 669 mmHg 92%

    24 Enero, Jueves

    Tiempo Temperatura Precipitaciones Viento Presión Humedad
    00:00 -3°C° 0.8 mm 6 mps 669 mmHg 92%
    01:00 -3°C° 0.8 mm 7 mps 669 mmHg 92%
    02:00 -4°C° 0 mm 7 mps 669 mmHg 90%
    03:00 -6°C° 0 mm 7 mps 668 mmHg 88%
    04:00 -6°C° 0 mm 6 mps 668 mmHg 86%
    05:00 -7°C° 0 mm 7 mps 668 mmHg 86%
    06:00 -7°C° 0 mm 7 mps 668 mmHg 86%
    07:00 -7°C° 0 mm 8 mps 668 mmHg 87%
    08:00 -7°C° 0 mm 10 mps 668 mmHg 83%
    09:00 -6°C° 0 mm 11 mps 668 mmHg 79%
    10:00 -5°C° 0 mm 13 mps 669 mmHg 75%
    11:00 -4°C° 0 mm 14 mps 669 mmHg 77%
    12:00 -4°C° 0 mm 14 mps 669 mmHg 78%
    13:00 -3°C° 0 mm 15 mps 669 mmHg 80%
    14:00 -2°C° 0.1 mm 14 mps 670 mmHg 80%
    15:00 -2°C° 0.1 mm 13 mps 670 mmHg 81%
    16:00 -2°C° 0.1 mm 12 mps 670 mmHg 81%
    17:00 -2°C° 0.7 mm 13 mps 670 mmHg 84%
    18:00 -2°C° 0.7 mm 13 mps 671 mmHg 87%
    19:00 -2°C° 0.7 mm 14 mps 671 mmHg 90%
    20:00 -2°C° 1.6 mm 13 mps 672 mmHg 92%
    21:00 -2°C° 1.6 mm 13 mps 673 mmHg 95%
    22:00 -1°C° 1.6 mm 12 mps 674 mmHg 97%
    23:00 -2°C° 0.1 mm 12 mps 674 mmHg 97%

    25 Enero, Viernes

    Tiempo Temperatura Precipitaciones Viento Presión Humedad
    00:00 -2°C° 0.1 mm 12 mps 675 mmHg 96%
    01:00 -2°C° 0.1 mm 12 mps 675 mmHg 96%
    02:00 -2°C° 0.1 mm 11 mps 675 mmHg 95%
    03:00 -2°C° 0.1 mm 11 mps 675 mmHg 95%
    04:00 -3°C° 0.1 mm 10 mps 676 mmHg 94%
    05:00 -2°C° 0 mm 8 mps 676 mmHg 93%
    06:00 -2°C° 0 mm 7 mps 676 mmHg 93%
    07:00 -2°C° 0 mm 5 mps 676 mmHg 92%
    08:00 -1°C° 0 mm 5 mps 677 mmHg 92%
    09:00 -1°C° 0 mm 4 mps 677 mmHg 91%
    10:00 -1°C° 0 mm 4 mps 678 mmHg 91%
    11:00 -1°C° 0 mm 4 mps 678 mmHg 90%
    12:00 0°C° 0 mm 4 mps 678 mmHg 90%
    13:00 0°C° 0 mm 4 mps 678 mmHg 89%
    14:00 +1°C° 0 mm 3 mps 678 mmHg 86%
    15:00 +1°C° 0 mm 3 mps 678 mmHg 83%
    16:00 +3°C° 0 mm 2 mps 678 mmHg 79%
    17:00 +1°C° 0 mm 3 mps 678 mmHg 81%
    18:00 0°C° 0 mm 3 mps 678 mmHg 83%
    19:00 -2°C° 0 mm 4 mps 679 mmHg 84%
    20:00 -2°C° 0 mm 4 mps 679 mmHg 86%
    21:00 -2°C° 0 mm 4 mps 679 mmHg 88%
    22:00 -3°C° 0 mm 4 mps 679 mmHg 90%
    23:00 -2°C° 0 mm 3 mps 679 mmHg 90%
    Mostrar más